date	bc
22/07/14 00:00	620.21
22/07/14 01:00	619.64
22/07/14 02:00	622.16
22/07/14 03:00	622.3
22/07/14 04:00	621.86
22/07/14 05:00	621.07
22/07/14 06:00	620.25
22/07/14 07:00	620.53
22/07/14 08:00	619.5
22/07/14 09:00	619.86
22/07/14 10:00	620.95
22/07/14 11:00	620.52
22/07/14 12:00	619.5
22/07/14 13:00	619.88
22/07/14 14:00	620.3
22/07/14 15:00	620.82
22/07/14 16:00	620.5
22/07/14 17:00	620.51
22/07/14 18:00	620
22/07/14 19:00	619.79
22/07/14 20:00	619.96
22/07/14 21:00	619.28
22/07/14 22:00	619.18
22/07/14 23:00	618.93
23/07/14 00:00	618.15
23/07/14 01:00	618.82
23/07/14 02:00	618.97
23/07/14 03:00	618.68
23/07/14 04:00	618.64
23/07/14 05:00	618.71
23/07/14 06:00	619.25
23/07/14 07:00	619.09
23/07/14 08:00	619.16
23/07/14 09:00	619.24
23/07/14 10:00	618.89
23/07/14 11:00	618.95
23/07/14 12:00	619.45
23/07/14 13:00	619.36
23/07/14 14:00	619.66
23/07/14 15:00	619.61
23/07/14 16:00	619.54
23/07/14 17:00	619.8
23/07/14 18:00	619.38
23/07/14 19:00	617.72
23/07/14 20:00	617.81
23/07/14 21:00	618.2
23/07/14 22:00	618.39
23/07/14 23:00	617.99
24/07/14 00:00	618.37
24/07/14 01:00	618.29
24/07/14 02:00	617.84
24/07/14 03:00	617.81
24/07/14 04:00	618.18
24/07/14 05:00	617.68
24/07/14 06:00	617.7
24/07/14 07:00	617.06
24/07/14 08:00	616.98
24/07/14 09:00	610.29
24/07/14 10:00	611.37
24/07/14 11:00	603.92
24/07/14 12:00	605.33
24/07/14 13:00	596.9
24/07/14 14:00	598.64
24/07/14 15:00	598.8
24/07/14 16:00	597.77
24/07/14 17:00	599.46
24/07/14 18:00	597.09
24/07/14 19:00	595.05
24/07/14 20:00	598.6
24/07/14 21:00	599.2
24/07/14 22:00	599.65
24/07/14 23:00	600.06
25/07/14 00:00	601.13
25/07/14 01:00	599.24
25/07/14 02:00	602.89
25/07/14 03:00	602.8
25/07/14 04:00	605.95
25/07/14 05:00	603.74
25/07/14 06:00	601.83
25/07/14 07:00	594.96
25/07/14 08:00	596.44
25/07/14 09:00	598.03
25/07/14 10:00	597.54
25/07/14 11:00	596.96
25/07/14 12:00	598.93
25/07/14 13:00	599.61
25/07/14 14:00	600.45
25/07/14 15:00	599.3
25/07/14 16:00	599.48
25/07/14 17:00	599.61
25/07/14 18:00	598.54
25/07/14 19:00	599.51
25/07/14 20:00	598.42
25/07/14 21:00	598.77
25/07/14 22:00	598.92
25/07/14 23:00	599.41
26/07/14 00:00	598.82
26/07/14 01:00	599.15
26/07/14 02:00	598.46
26/07/14 03:00	597.96
26/07/14 04:00	592.06
26/07/14 05:00	591.4
26/07/14 06:00	592.67
26/07/14 07:00	592.64
26/07/14 08:00	591.29
26/07/14 09:00	592.1
26/07/14 10:00	591
26/07/14 11:00	593.85
26/07/14 12:00	594.48
26/07/14 13:00	595.03
26/07/14 14:00	592.68

